Date,TemperatureHighF,TemperatureAvgF,TemperatureLowF,DewpointHighF,DewpointAvgF,DewpointLowF,HumidityHigh,HumidityAvg,HumidityLow,PressureMaxIn,PressureMinIn,WindSpeedMaxMPH,WindSpeedAvgMPH,GustSpeedMaxMPH,PrecipitationSumIn
2012-1-1,57.5,40.4,26.1,51.9,34.2,24.1,95,80,54,30.12,29.84,24,5,24,0.16
2012-1-2,40.8,30.7,19.2,28.0,15.9,10.4,82,55,42,30.18,30.00,26,11,26,0.00
2012-1-3,26.1,20.7,16.1,14.6,11.1,8.9,82,66,49,30.37,30.17,21,8,21,0.00
2012-1-4,46.0,26.1,12.8,22.4,13.5,3.9,88,65,19,30.37,30.06,16,2,16,0.00
2012-1-5,47.1,33.4,23.5,31.9,26.2,19.9,91,75,43,30.16,30.05,13,3,13,0.00
2012-1-6,60.4,34.6,20.8,34.4,24.1,18.1,91,71,25,30.11,29.94,13,2,13,0.00
2012-1-7,58.4,46.6,26.3,52.2,42.9,23.2,96,87,74,30.02,29.89,16,2,16,0.23
2012-1-8,50.8,46.2,41.2,48.4,43.0,36.3,96,89,70,30.15,30.02,6,1,6,0.06
2012-1-9,51.9,47.9,43.3,50.8,46.8,42.2,97,96,95,30.11,29.98,9,1,9,0.23
2012-1-10,52.2,46.8,38.3,50.3,43.4,37.2,97,89,64,30.05,29.88,7,1,7,0.00
2012-1-11,57.5,51.2,45.4,51.2,47.5,42.3,95,87,76,29.78,29.37,21,6,21,0.57
2012-1-12,55.1,44.9,26.9,46.7,39.8,18.2,93,83,62,29.74,29.40,36,10,36,0.34
2012-1-13,27.5,25.5,22.7,20.3,16.7,12.0,85,69,61,30.12,29.72,29,14,29,0.00
2012-1-14,40.1,32.0,22.1,30.1,20.1,14.3,84,63,40,30.19,30.01,20,6,20,0.00
2012-1-15,42.2,33.5,21.8,30.3,24.4,18.8,90,70,48,30.44,30.06,16,4,16,0.00
2012-1-16,55.1,38.1,21.3,33.6,25.4,18.6,92,66,25,30.39,30.10,14,2,14,0.00
2012-1-17,65.6,54.9,43.3,54.8,43.1,23.8,92,66,31,30.10,29.75,26,7,26,0.31
2012-1-18,46.8,33.9,23.9,40.0,25.5,20.3,88,72,53,30.13,29.92,16,3,16,0.00
2012-1-19,44.2,30.8,17.2,30.5,23.9,14.5,91,77,42,30.13,29.96,12,1,12,0.00
2012-1-20,55.3,43.5,27.6,46.6,37.2,24.2,95,79,58,30.05,29.85,12,1,12,0.17
2012-1-21,54.5,49.3,41.5,53.1,47.7,38.3,97,94,89,30.00,29.70,26,1,26,0.83
2012-1-22,62.1,47.9,35.8,52.1,42.3,34.5,97,82,57,30.07,29.93,14,2,14,0.00
2012-1-23,60.4,52.5,42.6,49.8,45.8,39.9,94,79,65,29.93,29.78,29,6,29,0.26
2012-1-24,56.5,47.1,30.4,49.1,37.9,28.1,92,72,43,30.24,29.91,13,4,13,0.00
2012-1-25,66.4,43.2,30.0,42.8,34.9,28.0,95,77,31,30.24,30.01,5,0,5,0.00
2012-1-26,67.6,58.1,38.9,55.2,48.6,36.8,93,72,57,30.01,29.43,26,6,26,0.05
2012-1-27,66.4,46.1,29.7,54.4,40.4,27.7,92,81,62,30.02,29.42,26,8,26,0.36
2012-1-28,50.2,34.8,24.5,41.2,28.6,16.1,95,80,33,30.26,29.95,21,3,21,0.00
2012-1-29,47.7,32.5,17.8,27.2,17.2,9.4,92,60,21,30.37,30.21,26,5,26,0.00
2012-1-30,57.8,36.3,21.3,32.6,23.6,18.3,91,66,26,30.37,30.24,17,2,17,0.00
2012-1-31,64.5,40.9,25.0,37.4,28.2,18.7,93,68,18,30.35,30.14,16,2,16,0.00
2012-2-1,52.2,44.7,31.6,47.3,41.4,28.7,96,88,72,30.17,29.99,7,0,7,0.44
2012-2-2,61.2,50.0,31.6,51.0,42.6,29.4,96,79,35,30.30,29.96,16,4,16,0.09
2012-2-3,62.4,39.8,24.8,39.4,31.4,23.1,95,76,26,30.39,30.22,12,1,12,0.00
2012-2-4,50.8,45.8,36.6,48.2,43.1,34.2,96,90,83,30.22,29.93,20,0,20,0.36
2012-2-5,54.5,49.6,37.9,53.3,45.1,34.4,97,85,61,30.10,29.90,13,3,13,0.12
2012-2-6,51.1,42.9,33.1,42.4,37.5,30.2,94,82,67,30.14,30.06,12,1,12,0.00
2012-2-7,52.6,36.8,26.0,40.4,28.9,24.3,96,77,35,30.19,30.09,12,1,12,0.00
2012-2-8,44.3,38.1,28.2,37.3,32.1,25.9,93,79,64,30.21,30.07,16,3,16,0.00
2012-2-9,42.1,34.6,24.7,28.8,25.8,22.0,90,71,55,30.26,30.13,8,1,8,0.00
2012-2-10,43.5,33.1,21.9,34.4,27.8,19.7,93,82,63,30.15,29.89,13,1,13,0.01
2012-2-11,37.3,28.8,20.0,34.5,20.0,4.5,92,71,44,30.28,29.81,22,10,22,0.02
2012-2-12,33.5,24.0,16.9,15.5,9.5,3.6,78,54,41,30.38,30.26,20,9,20,0.00
2012-2-13,45.2,30.0,14.0,29.0,18.2,10.3,87,65,30,30.30,29.99,8,0,8,0.00
2012-2-14,44.6,39.8,33.7,39.0,32.3,26.2,86,75,57,30.06,29.89,7,1,7,0.00
2012-2-15,61.6,48.1,35.0,43.0,38.4,32.2,94,71,43,30.18,30.01,12,1,12,0.00
2012-2-16,58.7,51.3,38.8,51.0,43.2,30.3,96,77,35,30.06,29.93,17,2,17,0.31
2012-2-17,57.8,46.7,39.2,45.6,39.6,32.6,96,79,40,30.13,30.01,12,1,12,0.00
2012-2-18,61.3,48.2,35.3,41.6,37.4,26.9,93,71,28,30.03,29.85,10,1,10,0.00
2012-2-19,47.9,41.0,32.8,41.7,36.9,31.0,94,86,57,30.00,29.64,20,6,20,0.57
2012-2-20,48.0,35.8,27.6,32.0,29.3,25.3,94,79,48,30.25,29.99,13,3,13,0.05
2012-2-21,63.2,45.8,26.9,37.9,30.2,21.5,92,58,27,30.11,29.80,24,5,24,0.00
2012-2-22,56.3,44.1,30.3,50.8,39.7,26.7,96,85,41,29.89,29.44,18,1,18,0.68
2012-2-23,73.7,60.0,42.2,57.6,47.4,41.1,97,68,34,29.58,29.36,20,4,20,0.11
2012-2-24,70.6,57.7,39.1,56.9,41.1,20.7,83,54,32,29.94,29.35,33,14,33,0.04
2012-2-25,46.5,36.6,23.3,26.1,21.7,15.6,84,56,29,30.31,29.94,28,10,28,0.00
2012-2-26,58.0,35.5,18.3,32.4,22.6,15.3,91,66,24,30.39,30.24,7,1,7,0.00
2012-2-27,60.9,42.1,26.4,41.4,32.8,22.7,91,72,39,30.39,30.24,14,2,14,0.00
2012-2-28,72.0,48.7,27.9,46.2,36.7,26.1,94,69,29,30.35,30.06,12,1,12,0.00
2012-2-29,70.6,63.1,49.4,58.0,53.4,43.2,92,71,57,30.06,29.64,24,5,24,0.04
2012-3-1,66.0,55.9,34.3,57.7,41.7,28.0,92,64,25,29.83,29.66,26,8,26,0.00
2012-3-2,72.0,56.4,33.5,56.2,46.2,30.9,92,71,48,29.82,29.42,34,7,34,0.25
2012-3-3,58.4,48.7,43.1,54.9,37.0,20.4,92,67,30,29.78,29.49,20,6,20,0.26
2012-3-4,44.6,38.7,34.7,31.0,23.6,17.4,82,55,42,29.92,29.72,30,9,30,0.00
2012-3-5,46.7,38.3,23.2,35.4,24.0,15.9,82,58,35,30.44,29.74,36,10,36,0.04
2012-3-6,66.3,41.3,20.0,32.0,21.2,9.1,89,54,12,30.53,30.31,16,2,16,0.00
2012-3-7,65.5,52.3,34.1,44.6,36.6,20.4,79,56,40,30.42,30.21,23,6,23,0.00
2012-3-8,67.6,60.6,50.8,54.3,47.5,43.4,94,64,45,30.23,29.96,26,6,26,0.46
2012-3-9,54.2,46.7,30.7,52.7,36.6,24.3,95,71,33,30.34,30.03,16,3,16,0.09
2012-3-10,59.5,40.8,26.7,34.3,28.3,22.3,92,67,26,30.45,30.30,13,2,13,0.00
2012-3-11,69.9,48.9,26.9,45.8,31.6,23.9,92,59,18,30.44,30.23,15,1,15,0.00
2012-3-12,68.8,57.4,44.6,52.1,46.7,37.0,88,69,50,30.25,30.08,15,2,15,0.00
2012-3-13,73.0,58.7,47.9,60.7,52.9,45.7,96,83,43,30.15,30.02,13,2,13,0.11
2012-3-14,77.2,57.4,41.3,56.8,48.3,40.0,96,76,34,30.21,30.08,12,1,12,0.00
2012-3-15,79.2,60.2,43.9,61.2,52.1,41.9,96,77,42,30.21,30.05,25,4,25,0.24
2012-3-16,74.6,61.8,51.4,58.9,54.9,49.2,96,80,54,30.19,30.03,33,3,33,0.38
2012-3-17,74.0,60.1,48.6,59.4,54.0,47.5,97,82,51,30.19,30.06,13,2,13,0.00
2012-3-18,76.8,61.3,50.4,61.6,55.6,48.2,96,84,49,30.23,30.04,8,1,8,0.51
2012-3-19,79.9,61.2,47.1,61.5,52.6,45.9,96,77,39,30.14,30.00,12,1,12,0.00
2012-3-20,82.2,62.5,48.9,62.0,53.6,47.2,96,76,36,30.11,29.98,21,2,21,0.00
2012-3-21,80.9,63.9,48.6,61.1,53.6,46.9,95,73,40,30.14,30.00,14,2,14,0.00
2012-3-22,79.9,65.0,50.1,62.4,55.5,47.7,93,74,41,30.10,29.98,12,2,12,0.01
2012-3-23,73.7,62.8,54.1,63.9,58.2,52.7,96,86,54,30.01,29.79,12,1,12,0.02
2012-3-24,68.3,56.2,45.5,56.9,51.0,42.6,97,84,40,29.81,29.68,25,3,25,0.15
2012-3-25,60.1,53.2,46.0,55.2,50.7,44.6,96,91,78,29.87,29.72,12,1,12,0.31
2012-3-26,72.7,58.8,48.0,56.9,49.8,43.5,97,76,37,30.06,29.87,12,2,12,0.00
2012-3-27,74.6,54.3,36.5,51.0,41.4,31.8,91,66,30,30.17,30.04,12,1,12,0.00
2012-3-28,75.6,59.8,43.1,56.6,49.7,41.5,96,72,46,30.09,29.84,27,6,27,0.00
2012-3-29,76.5,65.2,50.7,57.8,52.6,48.2,92,66,41,29.91,29.79,16,4,16,0.00
2012-3-30,76.8,58.7,46.0,59.2,52.8,44.6,96,83,46,29.91,29.74,23,2,23,0.20
2012-3-31,72.5,62.2,53.2,60.1,57.2,51.2,96,85,58,29.79,29.67,13,3,13,0.34
2012-4-1,71.6,55.6,45.2,60.9,51.7,44.1,97,88,56,29.82,29.68,22,1,22,0.13
2012-4-2,79.6,62.6,49.9,66.1,58.2,48.5,96,86,56,29.82,29.65,22,2,22,0.01
2012-4-3,81.2,61.5,48.5,66.4,56.5,47.4,97,86,52,29.94,29.73,28,2,28,1.43
2012-4-4,76.7,63.7,51.4,63.1,57.5,50.2,96,82,54,29.80,29.58,16,4,16,0.26
2012-4-5,72.7,60.8,55.3,64.3,57.4,52.0,97,89,66,29.67,29.53,26,3,26,0.39
2012-4-6,63.4,53.9,39.2,52.4,43.0,34.8,91,69,36,30.07,29.67,16,6,16,0.00
2012-4-7,68.1,48.8,32.2,44.3,35.7,26.1,96,68,22,30.22,30.07,10,1,10,0.00
2012-4-8,69.9,52.7,36.2,48.5,41.2,34.4,96,69,38,30.14,29.98,20,4,20,0.00
2012-4-9,67.1,52.0,34.0,44.5,36.1,30.0,95,61,27,30.06,29.85,21,5,21,0.00
2012-4-10,64.7,51.7,39.2,43.7,36.1,23.9,93,60,29,29.94,29.78,26,6,26,0.00
2012-4-11,54.2,44.1,31.3,31.9,27.2,21.7,87,54,31,30.12,29.89,17,4,17,0.00
2012-4-12,60.7,41.6,25.0,38.9,29.5,22.7,93,67,29,30.25,30.06,16,2,16,0.00
2012-4-13,67.8,47.3,29.0,48.5,34.5,27.2,94,68,26,30.20,30.09,12,2,12,0.00
2012-4-14,78.3,57.5,38.5,54.5,44.3,36.1,93,67,31,30.19,30.00,7,1,7,0.00
2012-4-15,79.9,61.0,40.5,59.5,49.9,38.9,96,72,34,30.08,29.96,13,2,13,0.00
2012-4-16,81.6,68.6,51.9,62.3,56.4,49.5,94,68,42,30.05,29.93,18,4,18,0.00
2012-4-17,72.1,63.1,54.7,60.9,55.9,52.3,95,79,54,30.12,30.04,13,3,13,0.11
2012-4-18,61.3,56.3,53.8,58.4,54.1,51.9,96,93,80,30.05,29.96,12,2,12,0.78
2012-4-19,73.0,60.4,53.2,56.0,52.9,47.3,96,79,45,30.01,29.83,8,1,8,0.00
2012-4-20,72.8,59.3,44.2,59.0,52.0,43.1,96,79,51,29.87,29.72,13,2,13,0.00
2012-4-21,70.8,59.1,49.8,59.3,54.0,48.4,96,84,63,29.74,29.65,16,2,16,0.02
2012-4-22,55.1,49.9,40.6,53.4,46.2,37.3,94,87,74,29.71,29.57,15,2,15,0.13
2012-4-23,54.8,45.3,39.6,37.5,30.3,21.2,87,59,28,29.73,29.63,26,7,26,0.00
2012-4-24,60.4,50.1,40.5,44.5,34.1,26.6,81,55,39,29.80,29.69,29,10,29,0.01
2012-4-25,74.0,56.8,46.8,60.0,51.2,44.6,95,83,56,29.84,29.70,12,2,12,0.53
2012-4-26,68.4,63.6,51.6,63.2,58.8,50.3,97,85,66,29.79,29.64,33,6,33,0.38
2012-4-27,74.4,63.8,52.2,62.8,54.4,40.0,96,75,31,29.99,29.79,14,1,14,0.00
2012-4-28,79.6,63.9,50.4,64.1,56.6,48.2,95,79,55,30.01,29.86,14,2,14,0.00
2012-4-29,81.8,66.6,51.6,67.3,57.9,50.5,97,77,41,30.06,29.97,7,1,7,0.00
2012-4-30,84.0,68.0,52.9,67.1,59.5,51.8,96,77,46,30.07,29.92,14,2,14,0.00
2012-5-1,83.2,69.5,56.3,66.6,60.1,54.6,96,75,42,30.02,29.88,18,3,18,0.00
2012-5-2,86.3,71.2,56.6,69.0,62.4,55.3,96,77,46,30.04,29.92,16,1,16,0.00
2012-5-3,85.5,71.2,54.4,69.4,62.8,53.3,97,77,47,30.05,29.92,6,0,6,0.00
2012-5-4,80.1,70.6,61.3,65.5,63.1,59.3,94,78,55,30.03,29.84,15,3,15,0.01
2012-5-5,77.6,67.6,59.9,65.8,62.2,58.4,96,84,58,29.93,29.80,12,2,12,0.60
2012-5-6,83.0,69.6,58.0,68.1,61.6,56.9,97,78,45,29.93,29.80,10,1,10,0.00
2012-5-7,83.2,70.3,58.9,65.4,60.4,57.2,95,73,46,29.88,29.74,12,1,12,0.00
2012-5-8,76.8,70.9,64.7,66.6,61.7,56.9,93,73,59,29.80,29.71,18,4,18,0.00
2012-5-9,65.0,61.1,54.8,62.9,58.8,53.3,96,92,82,29.78,29.68,10,1,10,0.68
2012-5-10,69.6,56.6,45.1,53.4,46.8,40.7,97,74,36,29.95,29.75,14,2,14,0.00
2012-5-11,73.9,56.1,39.1,56.2,44.6,37.8,96,71,29,30.12,29.95,16,2,16,0.00
2012-5-12,77.0,61.0,46.8,61.0,53.3,45.4,96,78,46,30.20,30.09,10,1,10,0.00
2012-5-13,67.1,62.7,58.4,60.1,56.2,51.3,95,80,60,30.09,29.92,12,1,12,0.16
2012-5-14,74.7,64.3,57.5,64.6,60.4,56.1,96,88,64,29.92,29.79,20,2,20,0.56
2012-5-15,75.3,65.9,59.6,64.6,61.4,58.2,97,86,62,29.91,29.83,8,0,8,0.19
2012-5-16,79.4,66.0,56.3,65.6,58.8,53.0,97,81,42,29.93,29.81,10,1,10,0.00
2012-5-17,82.0,66.6,49.9,62.5,55.5,48.8,97,72,37,29.94,29.82,13,2,13,0.00
2012-5-18,80.9,68.4,55.7,64.7,58.8,54.0,95,74,42,29.98,29.89,9,1,9,0.00
2012-5-19,80.3,66.1,52.8,67.3,58.8,51.7,97,80,43,30.06,29.94,10,1,10,0.00
2012-5-20,82.2,65.9,50.1,62.1,54.9,48.2,96,72,33,30.07,29.92,12,1,12,0.00
2012-5-21,83.4,65.1,50.7,64.2,57.0,49.4,96,78,41,29.95,29.78,21,2,21,0.04
2012-5-22,73.7,63.0,53.2,63.5,58.9,52.1,97,87,66,29.85,29.73,12,1,12,0.26
2012-5-23,77.4,65.2,59.9,64.7,61.7,58.2,97,89,60,29.82,29.74,14,0,14,0.29
2012-5-24,84.0,68.7,56.9,68.6,60.4,56.0,97,79,43,29.90,29.79,12,0,12,0.00
2012-5-25,87.6,72.8,57.8,70.6,61.7,55.5,94,71,39,30.01,29.89,10,1,10,0.00
2012-5-26,89.7,72.0,56.5,71.6,63.2,55.4,97,77,41,30.09,29.95,10,0,10,0.00
2012-5-27,88.4,74.2,60.2,70.6,64.5,59.1,97,75,41,30.01,29.89,13,2,13,0.00
2012-5-28,87.4,73.6,58.3,70.3,64.1,57.2,97,75,46,29.94,29.80,9,0,9,0.00
2012-5-29,84.3,71.5,62.1,69.2,64.4,59.7,94,80,54,29.84,29.70,15,2,15,0.05
2012-5-30,84.1,70.1,58.1,68.8,62.2,55.2,97,79,41,29.79,29.70,12,1,12,0.00
2012-5-31,87.0,69.2,52.5,64.5,57.3,51.1,96,70,33,29.81,29.61,18,1,18,0.00
2012-6-1,79.6,67.1,57.6,66.7,59.3,48.6,94,77,45,29.80,29.57,31,5,31,0.33
2012-6-2,68.9,59.1,48.9,51.8,48.6,44.3,94,70,43,29.88,29.79,16,3,16,0.00
2012-6-3,77.2,63.3,50.4,61.7,54.8,48.7,95,76,46,29.92,29.76,17,4,17,0.00
2012-6-4,78.8,65.5,56.9,64.9,58.5,54.3,96,80,45,29.78,29.68,20,2,20,0.03
2012-6-5,77.4,66.5,55.7,61.3,55.4,47.0,96,71,37,29.76,29.66,12,1,12,0.03
2012-6-6,77.6,64.5,51.7,58.5,54.1,49.9,95,72,42,29.89,29.74,12,2,12,0.00
2012-6-7,79.0,64.7,51.3,61.6,53.8,47.8,95,71,34,29.97,29.89,12,1,12,0.00
2012-6-8,80.9,64.7,47.7,58.7,51.0,43.4,94,67,28,30.01,29.88,14,2,14,0.00
2012-6-9,83.0,69.4,52.8,66.6,58.8,50.2,92,71,41,30.00,29.87,10,1,10,0.00
2012-6-10,78.8,71.2,61.3,63.8,59.7,54.2,89,68,44,29.98,29.90,13,2,13,0.00
2012-6-11,82.2,72.2,65.2,70.0,65.1,59.3,93,79,58,29.94,29.82,17,1,17,0.20
2012-6-12,82.4,72.9,66.4,71.9,68.0,64.6,95,85,65,29.88,29.78,18,2,18,0.10
2012-6-13,83.2,73.7,60.9,68.2,62.2,54.1,92,70,40,29.92,29.84,12,2,12,0.00
2012-6-14,87.0,71.4,56.2,66.4,60.6,53.7,93,71,40,29.97,29.89,12,1,12,0.00
2012-6-15,83.0,71.7,58.4,64.5,60.3,55.7,92,69,46,30.09,29.96,13,2,13,0.00
2012-6-16,83.2,70.8,55.6,66.7,60.0,53.1,92,71,48,30.15,29.97,10,1,10,0.00
2012-6-17,79.4,69.0,60.2,66.6,62.5,57.9,93,81,60,30.07,29.89,9,1,9,0.47
2012-6-18,86.7,75.0,64.2,67.8,63.5,58.8,93,70,43,29.96,29.87,16,3,16,0.00
2012-6-19,87.2,73.4,61.2,70.9,64.4,58.9,93,76,45,30.08,29.96,8,1,8,0.00
2012-6-20,87.0,75.3,61.8,71.7,65.5,59.3,93,74,49,30.09,29.94,9,1,9,0.00
2012-6-21,87.4,75.8,63.4,72.6,66.7,61.0,93,75,51,30.00,29.80,12,1,12,0.00
2012-6-22,89.5,76.3,66.4,70.3,66.0,63.4,92,73,44,29.85,29.74,13,2,13,0.00
2012-6-23,89.7,76.0,65.2,70.6,62.9,52.8,92,68,31,29.89,29.80,10,1,10,0.00
2012-6-24,92.9,76.9,61.0,71.4,61.0,54.3,89,63,28,29.90,29.75,10,1,10,0.00
2012-6-25,92.1,76.4,60.2,70.4,61.6,56.6,90,64,34,29.78,29.63,15,2,15,0.00
2012-6-26,82.4,70.9,55.4,59.9,48.0,40.2,77,48,23,29.84,29.70,20,6,20,0.00
2012-6-27,87.2,67.7,48.3,56.3,49.1,44.3,88,57,25,29.94,29.82,14,2,14,0.00
2012-6-28,94.7,76.6,52.2,65.1,54.1,48.4,88,52,22,29.96,29.82,16,5,16,0.00
2012-6-29,100.7,78.9,58.1,71.3,59.5,54.1,88,58,25,29.89,29.70,14,3,14,0.00
2012-6-30,101.5,82.6,67.3,73.6,65.0,58.3,84,60,26,29.82,29.70,13,2,13,0.00
2012-7-1,99.9,83.3,67.6,75.7,66.2,61.9,84,60,30,29.89,29.75,18,2,18,0.00
2012-7-2,89.3,76.5,66.9,71.1,66.5,60.3,87,73,48,30.01,29.77,36,3,36,1.05
2012-7-3,90.3,78.4,67.9,71.6,66.1,61.4,85,67,46,29.95,29.82,22,2,22,0.00
2012-7-4,90.3,77.5,66.1,72.1,66.9,61.1,87,71,50,29.94,29.82,14,2,14,0.00
2012-7-5,92.5,74.7,67.3,73.7,66.8,60.4,88,78,48,30.02,29.81,40,2,40,0.55
2012-7-6,89.9,72.1,64.3,73.3,66.5,61.3,91,83,56,29.97,29.86,7,1,7,0.00
2012-7-7,94.9,81.4,68.3,75.8,69.8,64.3,88,70,43,29.93,29.80,10,1,10,0.00
2012-7-8,91.8,81.2,70.9,74.9,71.5,66.8,88,73,55,29.91,29.75,16,3,16,0.00
2012-7-9,87.0,76.4,69.9,74.4,69.5,65.2,90,80,62,29.89,29.78,13,1,13,1.19
2012-7-10,83.0,74.8,69.8,71.8,68.5,63.0,90,81,63,29.93,29.81,13,3,13,0.27
2012-7-11,73.7,70.4,67.9,70.3,67.1,65.0,91,89,86,30.00,29.89,9,1,9,1.06
2012-7-12,74.4,69.9,66.9,69.1,66.5,64.4,92,89,82,30.02,29.95,12,2,12,0.13
2012-7-13,84.0,73.9,67.9,73.0,68.5,65.2,92,84,65,30.04,29.94,12,0,12,0.08
2012-7-14,87.2,76.2,68.8,74.7,69.5,65.7,90,81,58,30.07,29.97,13,1,13,0.00
2012-7-15,89.3,76.7,66.8,74.4,68.7,63.5,90,77,56,30.10,29.95,13,1,13,0.00
2012-7-16,85.1,74.9,68.4,74.4,68.8,64.4,89,82,66,30.01,29.88,14,1,14,0.07
2012-7-17,84.7,73.7,66.4,76.4,68.7,63.1,91,85,73,29.93,29.84,10,1,10,0.13
2012-7-18,85.7,74.1,65.5,75.2,68.3,62.3,92,83,70,29.94,29.82,15,2,15,0.00
2012-7-19,87.2,75.5,68.3,74.4,68.6,64.7,90,80,61,29.96,29.81,22,2,22,0.33
2012-7-20,81.8,73.7,69.6,72.1,68.2,65.7,90,83,70,29.90,29.80,12,2,12,0.00
2012-7-21,73.2,72.6,71.8,68.2,67.6,66.5,85,84,82,29.88,29.85,18,9,18,1.91
2012-7-24,79.2,71.1,68.4,73.1,66.5,64.0,88,85,81,29.96,29.94,12,1,12,0.00
2012-7-25,82.6,81.4,74.7,75.4,74.5,68.5,81,80,78,29.88,29.82,9,6,9,0.55
2012-7-26,89.9,79.4,68.8,74.7,69.5,64.8,88,73,53,29.84,29.68,16,4,16,0.00
2012-7-27,85.7,77.2,70.6,75.0,69.6,65.2,83,77,65,29.86,29.74,20,3,20,0.33
2012-7-28,87.0,75.9,67.6,73.2,67.6,62.2,88,76,54,29.92,29.83,15,2,15,0.01
2012-7-29,86.1,73.9,62.6,71.1,64.1,59.0,89,73,46,29.96,29.85,7,0,7,0.00
2012-7-30,89.5,74.8,64.3,72.9,65.4,58.7,88,74,51,29.91,29.80,7,0,7,0.00
2012-7-31,84.5,73.8,66.8,74.1,66.8,61.3,88,79,59,29.87,29.74,22,2,22,0.16
2012-8-1,86.3,73.7,64.3,75.6,67.2,60.0,91,81,60,29.88,29.73,7,1,7,0.00
2012-8-2,89.9,76.0,64.7,73.4,66.7,59.9,89,74,49,29.83,29.74,12,1,12,0.00
2012-8-3,87.4,71.3,63.5,76.5,66.0,58.9,89,84,61,29.92,29.78,21,2,21,0.22
2012-8-4,86.3,75.5,68.1,75.2,69.0,65.1,92,81,60,30.02,29.88,12,1,12,0.00
2012-8-5,89.0,75.6,66.9,74.4,68.1,61.9,88,78,59,30.07,29.95,21,2,21,0.44
2012-8-6,79.2,73.4,69.3,73.0,69.2,66.2,95,87,79,30.05,29.90,7,1,7,0.01
2012-8-7,84.5,74.9,68.8,74.9,69.8,65.6,92,85,69,29.94,29.82,8,0,8,0.01
2012-8-8,87.6,76.4,68.6,75.8,69.4,62.5,91,80,56,29.92,29.82,9,1,9,0.03
2012-8-9,83.8,70.2,64.5,74.6,65.1,60.5,90,84,70,29.89,29.73,22,2,22,0.12
2012-8-10,79.9,71.6,65.5,71.0,66.6,62.2,91,84,72,29.76,29.67,13,2,13,0.15
2012-8-11,79.2,70.0,58.7,67.7,63.3,52.4,90,80,58,29.92,29.74,12,1,12,0.06
2012-8-12,80.1,66.5,55.7,65.2,57.7,51.5,88,75,51,29.97,29.88,12,1,12,0.00
2012-8-13,81.1,68.7,55.7,70.2,61.2,51.9,89,77,64,29.97,29.83,9,1,9,0.00
2012-8-14,79.2,70.2,63.9,70.0,64.6,60.3,89,83,72,29.88,29.77,10,1,10,0.14
2012-8-15,77.4,69.5,61.5,69.8,64.2,56.3,90,83,72,29.94,29.80,16,2,16,0.01
2012-8-16,84.1,69.5,57.0,69.1,61.0,53.8,91,76,50,29.99,29.82,9,0,9,0.00
2012-8-17,77.2,68.0,59.3,68.9,62.6,55.1,89,83,74,29.91,29.79,6,0,6,0.00
2012-8-18,80.3,72.6,66.0,67.7,64.3,59.7,89,76,56,29.85,29.73,10,1,10,0.00
2012-8-19,78.6,72.8,65.5,66.8,64.0,61.2,87,74,63,29.80,29.73,9,1,9,0.31
2012-8-20,79.6,69.7,58.1,64.6,59.6,50.1,88,72,47,29.91,29.76,13,2,13,0.00
2012-8-21,81.6,65.7,52.0,64.9,54.6,47.6,87,70,40,29.99,29.91,10,1,10,0.00
2012-8-22,83.2,67.0,51.6,66.0,55.7,46.9,87,69,41,30.05,29.95,10,0,10,0.00
2012-8-23,84.1,69.7,57.0,68.5,58.8,51.5,87,70,46,30.07,29.95,10,1,10,0.00
2012-8-24,85.5,70.2,56.6,69.2,59.6,52.2,88,71,42,30.07,29.94,13,1,13,0.00
2012-8-25,84.1,70.3,58.0,68.7,60.8,53.2,88,73,50,30.08,29.96,10,1,10,0.00
2012-8-26,85.9,77.3,61.3,70.2,62.9,54.0,84,63,45,30.09,29.96,12,2,12,0.00
2012-8-27,88.0,71.7,55.9,70.9,59.9,51.6,88,69,40,30.06,29.88,12,1,12,0.00
2012-8-28,89.9,73.7,56.6,70.8,61.9,52.1,88,69,41,29.96,29.80,12,1,12,0.00
2012-8-29,87.2,74.9,65.5,72.8,64.3,57.4,87,71,44,29.91,29.81,10,1,10,0.00
2012-8-30,88.6,73.9,62.4,73.2,64.6,57.3,88,74,52,30.03,29.87,13,2,13,0.00
2012-8-31,89.9,75.5,63.2,75.0,66.6,59.2,90,75,54,30.12,29.99,12,1,12,0.00
2012-9-1,91.8,78.0,67.3,74.6,67.4,62.5,88,72,46,30.08,29.90,10,1,10,0.00
2012-9-2,87.4,74.8,67.6,73.8,67.2,63.6,89,78,59,29.96,29.77,18,2,18,0.68
2012-9-3,81.6,72.8,68.6,75.1,68.5,65.4,91,87,78,29.86,29.77,7,1,7,0.05
2012-9-4,84.1,75.3,69.1,73.4,69.3,65.7,90,82,66,29.82,29.74,12,2,12,0.00
2012-9-5,85.3,76.5,72.1,75.0,70.3,67.3,90,82,64,29.83,29.70,10,1,10,0.15
2012-9-6,85.5,75.5,67.4,71.5,67.7,61.0,87,77,60,29.87,29.75,10,1,10,0.00
2012-9-7,89.3,74.3,63.9,73.8,65.2,59.4,91,75,47,29.89,29.70,10,1,10,0.00
2012-9-8,79.6,70.9,60.7,68.7,63.5,56.7,87,78,65,29.84,29.63,25,4,25,0.15
2012-9-9,75.4,62.1,49.8,61.3,54.1,46.7,91,77,53,29.96,29.83,12,1,12,0.00
2012-9-10,77.4,61.5,48.6,62.5,51.9,44.3,88,73,46,30.07,29.95,9,1,9,0.00
2012-9-11,79.4,63.9,51.4,63.8,53.9,47.4,89,72,46,30.18,30.06,12,1,12,0.00
2012-9-12,81.1,71.2,55.9,64.5,57.0,49.2,83,62,43,30.24,30.11,17,3,17,0.00
2012-9-13,79.4,64.5,50.1,62.0,52.9,45.8,88,69,40,30.27,30.12,12,2,12,0.00
2012-9-14,81.6,67.0,58.1,62.8,56.5,52.3,86,71,45,30.18,30.06,9,1,9,0.00
2012-9-15,80.5,66.8,53.2,65.9,56.7,48.8,88,72,48,30.15,30.00,12,1,12,0.01
2012-9-16,79.0,68.7,60.1,67.3,60.0,54.6,88,75,56,30.02,29.90,12,1,12,0.00
2012-9-17,71.8,66.0,60.2,66.8,61.8,55.3,90,86,79,29.95,29.65,12,1,12,0.22
2012-9-18,68.1,65.5,59.5,64.7,62.7,55.6,92,91,87,29.88,29.55,10,1,10,0.04
2012-9-19,69.8,59.7,50.4,56.2,52.1,46.5,91,77,53,30.04,29.88,12,2,12,0.01
2012-9-20,78.1,62.8,48.6,62.4,53.3,44.6,88,73,51,30.06,29.91,12,1,12,0.00
2012-9-21,78.8,65.0,53.3,63.6,56.4,48.9,88,75,56,30.00,29.83,14,2,14,0.00
2012-9-22,78.8,65.4,53.3,64.2,54.9,45.1,89,71,48,29.98,29.81,29,4,29,0.00
2012-9-23,70.1,55.2,43.3,53.1,42.0,32.5,85,64,31,30.14,29.97,13,1,13,0.00
2012-9-24,70.6,51.6,36.3,47.8,38.6,30.4,82,64,36,30.22,30.05,13,1,13,0.00
2012-9-25,75.3,56.2,40.6,56.7,46.0,34.9,84,70,46,30.15,30.03,12,1,12,0.00
2012-9-26,81.6,65.5,52.3,65.5,55.0,46.6,88,71,47,30.12,30.02,14,1,14,0.00
2012-9-27,79.9,65.2,52.3,65.2,55.9,47.9,88,73,51,30.13,30.00,12,1,12,0.00
2012-9-28,74.7,63.8,54.8,66.9,58.3,49.7,88,82,74,30.04,29.90,7,0,7,0.05
2012-9-29,69.3,64.0,58.0,65.7,60.6,55.1,91,89,86,29.92,29.80,12,1,12,0.65
2012-9-30,69.4,59.8,51.7,61.3,55.4,49.7,94,86,70,29.86,29.74,6,0,6,0.01
2012-10-1,64.8,61.4,58.0,61.5,57.4,54.1,89,87,84,29.77,29.56,17,3,17,0.29
2012-10-2,80.7,70.1,63.5,71.8,62.9,55.6,92,79,62,29.84,29.58,17,3,17,0.46
2012-10-3,71.6,64.9,60.2,64.0,59.4,54.9,88,82,76,30.09,29.84,7,0,7,0.00
2012-10-4,74.2,63.8,52.5,61.2,56.3,46.2,88,77,54,30.20,30.09,12,2,12,0.00
2012-10-5,78.1,60.2,46.0,62.7,51.4,41.7,88,74,53,30.16,29.93,7,0,7,0.00
2012-10-6,63.2,56.5,53.2,58.6,52.4,47.4,90,86,77,29.99,29.85,12,1,12,0.06
2012-10-7,53.3,49.9,44.1,50.4,46.8,40.9,90,89,87,30.10,29.89,10,0,10,0.15
2012-10-8,49.5,47.2,43.6,46.4,44.3,40.9,91,89,87,30.15,30.04,10,1,10,0.06
2012-10-9,58.1,51.7,42.9,51.2,47.1,38.3,90,84,74,30.09,29.97,6,0,6,0.00
2012-10-10,59.5,49.1,39.5,52.7,44.6,36.0,90,85,78,30.14,29.97,17,2,17,0.00
2012-10-11,66.3,49.8,36.2,51.0,41.6,33.5,91,75,44,30.23,30.12,12,1,12,0.00
2012-10-12,65.0,56.1,45.8,53.7,48.5,40.2,85,76,64,30.24,30.11,5,0,5,0.00
2012-10-13,74.7,55.3,39.8,57.1,45.8,36.1,89,72,47,30.27,30.12,10,1,10,0.00
2012-10-14,74.6,60.4,44.1,59.8,50.6,39.6,87,71,56,30.14,29.81,24,3,24,0.00
2012-10-15,70.4,60.9,43.5,58.5,50.5,35.8,88,70,48,29.87,29.75,21,6,21,0.53
2012-10-16,65.5,49.7,37.8,49.5,40.3,32.8,85,71,46,29.97,29.82,12,1,12,0.00
2012-10-17,74.0,54.0,36.8,55.1,42.4,32.4,87,67,38,29.92,29.66,17,1,17,0.00
2012-10-18,74.7,65.5,53.9,57.5,52.1,42.6,72,62,50,29.70,29.57,22,5,22,0.04
2012-10-19,67.1,55.3,37.2,47.8,35.1,30.1,79,50,27,29.71,29.58,25,4,25,0.00
2012-10-20,59.2,54.2,48.2,44.2,40.9,35.8,74,61,50,29.92,29.67,16,2,16,0.00
2012-10-21,66.6,53.3,39.6,49.4,43.1,34.2,83,69,50,30.11,29.92,9,0,9,0.00
2012-10-22,78.1,53.8,38.0,57.3,43.7,33.6,86,71,42,30.20,30.03,6,0,6,0.00
2012-10-23,74.6,56.0,41.9,60.9,46.6,37.1,86,72,52,30.14,30.01,12,1,12,0.00
2012-10-24,76.1,56.8,41.3,60.1,46.7,36.8,88,71,43,30.16,29.98,8,0,8,0.00
2012-10-25,80.5,57.3,39.3,61.2,46.3,34.6,87,69,38,30.08,29.92,6,0,6,0.00
2012-10-26,77.9,58.7,46.2,63.5,49.2,40.7,86,72,46,30.01,29.84,5,0,5,0.00
2012-10-27,58.9,52.4,47.3,54.9,47.6,41.2,88,84,76,29.86,29.78,12,2,12,0.00
2012-10-28,49.4,46.7,41.2,45.2,42.5,37.9,88,85,83,29.86,29.76,9,1,9,0.27
2012-10-29,41.9,40.0,37.8,38.0,36.0,32.8,88,85,80,29.85,29.64,20,9,20,0.13
2012-10-30,39.5,38.2,35.5,35.8,33.9,31.6,89,85,79,29.70,29.50,24,12,24,0.15
2012-10-31,51.4,43.4,38.9,36.5,34.2,30.6,86,71,52,29.78,29.67,22,9,22,0.00
2012-11-1,52.6,45.7,41.1,34.0,29.3,23.4,68,54,36,29.88,29.77,21,7,21,0.00
2012-11-2,61.3,49.0,32.2,41.7,30.3,21.7,66,49,38,29.97,29.81,20,4,20,0.00
2012-11-3,61.3,41.8,28.1,42.3,30.5,20.7,81,65,41,30.11,29.90,8,0,8,0.00
2012-11-4,55.7,50.3,46.1,46.6,41.7,37.5,82,73,65,29.99,29.87,10,2,10,0.05
2012-11-5,54.8,42.6,31.9,40.7,33.2,24.1,84,70,48,30.06,29.93,9,1,9,0.00
2012-11-6,45.4,39.7,31.9,39.9,34.2,25.7,84,81,76,29.99,29.85,5,0,5,0.01
2012-11-7,45.5,43.0,40.6,42.1,39.3,36.4,88,87,83,29.98,29.81,5,0,5,0.09
2012-11-8,53.5,39.6,29.3,43.2,34.3,23.9,91,82,64,30.16,29.98,12,1,12,0.00
2012-11-9,62.4,38.6,25.1,43.6,29.6,20.7,86,72,43,30.28,30.14,7,0,7,0.00
2012-11-10,69.4,43.2,27.9,49.0,31.9,21.9,84,67,35,30.34,30.18,5,0,5,0.00
2012-11-11,72.7,53.1,31.0,51.5,38.3,25.8,83,61,31,30.33,30.13,20,4,20,0.01
2012-11-12,68.9,60.8,43.6,54.1,49.0,39.6,86,66,55,30.27,29.96,26,7,26,0.45
2012-11-13,46.5,39.0,27.6,39.7,31.5,21.6,86,75,58,30.39,30.25,12,1,12,0.15
2012-11-14,53.1,35.8,22.2,40.0,28.1,16.7,84,74,58,30.39,30.21,6,0,6,0.00
2012-11-15,56.3,39.5,29.5,42.2,31.3,23.1,84,73,56,30.28,30.15,12,0,12,0.00
2012-11-16,55.4,37.0,24.8,40.0,27.6,19.5,83,70,44,30.33,30.22,13,1,13,0.00
2012-11-17,59.3,37.4,23.5,41.5,26.6,17.6,82,66,40,30.44,30.30,10,1,10,0.00
2012-11-18,59.8,38.7,23.2,43.0,28.1,15.5,77,66,51,30.45,30.27,10,1,10,0.00
2012-11-19,60.5,40.5,27.6,47.8,32.7,22.5,86,74,56,30.32,30.14,10,1,10,0.00
2012-11-20,61.5,41.7,30.6,47.5,32.8,24.6,85,72,47,30.15,30.00,10,1,10,0.00
2012-11-21,62.9,44.0,31.9,46.4,33.9,24.4,84,69,43,30.15,30.02,8,1,8,0.00
2012-11-22,66.6,41.0,26.6,46.7,31.2,21.6,84,69,45,30.24,30.07,6,0,6,0.00
2012-11-23,59.8,39.9,27.8,48.1,32.8,21.5,82,76,63,30.12,29.92,18,2,18,0.00
2012-11-24,40.8,34.6,19.9,32.0,23.7,10.5,80,65,50,30.14,29.99,15,5,15,0.00
2012-11-25,51.4,29.4,17.5,29.6,16.7,9.6,77,61,33,30.17,29.98,12,2,12,0.00
2012-11-26,60.7,38.1,20.6,39.1,25.1,12.7,76,61,35,30.20,30.03,8,0,8,0.02
2012-11-27,45.2,43.5,40.6,41.2,38.6,34.6,87,83,69,30.21,30.02,7,0,7,0.14
2012-11-28,46.7,37.1,23.6,37.1,30.8,17.4,87,78,63,30.37,30.19,12,1,12,0.00
2012-11-29,56.3,32.5,19.2,40.1,23.8,14.0,84,71,48,30.43,30.25,6,0,6,0.00
2012-11-30,57.2,36.4,22.2,43.5,27.5,16.4,81,71,52,30.36,30.20,10,1,10,0.00
2012-12-1,65.2,42.1,28.1,51.3,34.1,22.7,85,74,55,30.35,30.19,12,0,12,0.00
2012-12-2,67.6,44.6,30.9,54.1,36.6,26.1,86,75,53,30.29,30.13,14,2,14,0.00
2012-12-3,70.6,52.2,38.5,56.9,43.6,32.2,86,73,54,30.25,30.09,7,0,7,0.00
2012-12-4,69.3,50.6,34.4,57.2,42.9,29.8,86,76,57,30.23,30.05,10,1,10,0.00
2012-12-5,55.7,48.1,30.3,51.9,42.9,25.9,87,82,75,30.19,30.03,20,2,20,0.13
2012-12-6,52.2,42.6,30.4,46.2,38.2,26.6,89,84,78,30.15,30.02,0,0,0,0.00
2012-12-7,64.0,44.5,34.0,55.8,39.6,30.5,90,83,71,30.05,29.87,0,0,0,0.00
2012-12-8,68.1,52.1,41.6,57.0,45.6,35.8,89,79,60,29.95,29.83,14,1,14,0.00
2012-12-9,72.0,53.7,42.3,60.1,45.7,37.2,89,76,50,30.00,29.79,17,1,17,0.00
2012-12-10,65.5,55.4,41.9,54.9,50.4,39.2,90,83,66,29.79,29.55,18,2,18,0.60
2012-12-11,41.9,37.8,32.2,39.2,34.1,28.4,90,86,83,30.15,29.79,9,2,9,0.00
2012-12-12,40.5,33.7,27.2,34.6,29.4,22.8,88,84,74,30.27,30.14,9,1,9,0.00
2012-12-13,52.2,34.1,23.6,44.1,29.0,20.0,88,82,70,30.35,30.23,6,0,6,0.00
2012-12-14,54.7,35.5,22.9,44.5,29.4,18.8,88,79,65,30.38,30.15,6,0,6,0.00
2012-12-15,57.5,42.5,33.2,45.9,36.0,27.9,87,78,62,30.17,29.91,7,0,7,0.00
2012-12-16,59.3,51.3,44.1,54.4,46.7,38.6,91,84,77,29.95,29.72,18,1,18,0.48
2012-12-17,58.9,49.7,41.8,55.2,46.3,38.5,91,88,85,29.75,29.52,7,0,7,0.02
2012-12-18,50.5,43.8,27.5,46.4,37.2,21.8,88,78,60,29.91,29.58,20,6,20,0.02
2012-12-19,58.9,38.1,25.3,46.5,31.2,20.3,85,77,62,30.06,29.89,10,0,10,0.00
2012-12-20,61.5,48.8,32.1,47.0,38.7,26.0,86,69,48,29.98,29.44,46,12,46,0.19
2012-12-21,37.3,35.0,30.7,27.7,22.9,18.4,78,61,53,30.04,29.64,31,18,31,0.00
2012-12-22,40.9,30.1,20.0,22.1,16.4,10.1,65,57,43,30.25,30.04,21,6,21,0.00
2012-12-23,52.0,33.5,16.5,36.4,23.5,9.0,83,68,43,30.16,29.94,15,1,15,0.20
2012-12-24,49.1,44.6,40.8,45.5,40.9,36.0,90,87,83,29.94,29.74,7,0,7,0.42
2012-12-25,49.4,46.0,43.6,45.7,42.8,40.8,92,88,78,29.99,29.78,18,3,18,0.07
2012-12-26,51.7,44.6,32.9,44.2,39.0,28.6,88,81,72,29.84,29.34,31,16,31,0.47
2012-12-27,33.2,32.4,31.3,29.2,27.8,27.0,88,83,79,30.09,29.84,21,6,21,0.00
2012-12-28,42.2,36.4,30.0,35.7,31.0,25.2,85,81,76,30.09,29.72,12,2,12,0.15
2012-12-29,45.7,37.9,31.3,40.0,33.1,24.0,91,83,74,30.12,29.56,25,10,25,0.18
2012-12-30,36.0,29.1,21.9,26.1,21.2,15.5,77,72,65,30.43,30.12,20,4,20,0.00
2012-12-31,38.8,30.9,21.6,30.7,24.6,15.7,83,77,71,30.37,30.07,6,0,6,0.00
2013-1-1,44.1,40.6,35.9,41.6,36.3,30.0,91,85,78,30.07,29.90,20,1,20,0.46